This demonstration page uses our WeatherBlox Daily Observations layout. Learn more.

Left ArrowRight Arrow

Hourly Observations for May 10, 2021

Temp ( °F °C ) Dew Point ( °F °C ) Humidity (%) Winds ( mph kmh ) Pressure ( in mb ) Visibility ( mi km ) Precip ( " mm )
12:15 am 00:15 Partly Cloudy 37 3 37 2.5 97 97 Calm 30.08 1019 10 16 0.00 0.00
12:35 am 00:35 Clear 37 2.8 36 2.4 97 97 Calm 30.09 1019 10 16 0.00 0.00
12:55 am 00:55 Clear 36 2.1 35 1.9 99 99 Calm 30.10 1019 10 16 0.00 0.00
1:15 am 01:15 Clear 37 2.5 36 2.4 99 99 NNE 3 6 30.10 1019 10 16 0.00 0.00
1:35 am 01:35 Partly Cloudy 36 2.2 36 2 99 99 NNW 3 6 30.11 1020 10 16 0.00 0.00
1:55 am 01:55 Partly Cloudy 36 2.1 35 1.6 97 97 Calm 30.11 1020 10 16 0.00 0.00
2:15 am 02:15 Clear 35 1.9 35 1.6 98 98 Calm 30.11 1020 10 16 0.00 0.00
2:35 am 02:35 Clear 35 1.9 35 1.6 98 98 Calm 30.11 1020 10 16 0.00 0.00
2:55 am 02:55 Clear 35 1.6 34 1.3 98 98 Calm 30.11 1020 10 16 0.00 0.00
3:15 am 03:15 Clear 34 1.2 34 1 99 99 Calm 30.11 1020 10 16 0.00 0.00
3:35 am 03:35 Clear 33 0.7 33 0.5 99 99 Calm 30.12 1020 10 16 0.00 0.00
3:55 am 03:55 Clear 33 0.8 33 0.6 99 99 Calm 30.11 1020 10 16 0.00 0.00
4:15 am 04:15 Clear 33 0.5 33 0.4 99 99 Calm 30.12 1020 10 16 0.00 0.00
4:35 am 04:35 Clear 33 0.6 33 0.5 99 99 Calm 30.12 1020 10 16 0.00 0.00
4:55 am 04:55 Clear 33 0.3 32 0.1 99 99 Calm 30.13 1020 10 16 0.00 0.00
5:15 am 05:15 Clear 33 0.5 33 0.3 99 99 Calm 30.14 1021 10 16 0.00 0.00
5:35 am 05:35 Clear 32 0 32 0 100 100 Calm 30.14 1021 10 16 0.00 0.00
5:55 am 05:55 Clear 32 0 32 0 100 100 NW 3 6 30.14 1021 10 16 0.00 0.00
6:15 am 06:15 Clear 33 0.3 32 0.1 99 99 Calm 30.14 1021 10 16 0.00 0.00
6:35 am 06:35 Sunny 32 0.1 32 0 99 99 Calm 30.15 1021 10 16 0.00 0.00
6:55 am 06:55 Sunny 32 0 32 0 100 100 Calm 30.15 1021 10 16 0.00 0.00
7:15 am 07:15 Sunny 32 0.1 32 0 99 99 Calm 30.16 1021 10 16 0.00 0.00
7:35 am 07:35 Sunny 33 0.7 33 0.5 99 99 Calm 30.17 1022 7 11 0.00 0.00
7:55 am 07:55 Sunny 37 2.9 37 2.7 99 99 WNW 3 6 30.17 1022 7 11 0.00 0.00
8:15 am 08:15 Sunny 40 4.4 39 3.7 95 95 WNW 5 7 30.16 1021 10 16 0.00 0.00
8:35 am 08:35 Sunny 42 5.4 40 4.3 93 93 WNW 3 6 30.16 1021 10 16 0.00 0.00
8:55 am 08:55 Sunny 43 6.3 40 4.7 90 90 W 3 6 30.15 1021 10 16 0.00 0.00
9:15 am 09:15 Sunny 45 7.2 42 5.4 88 88 W 5 7 30.16 1021 10 16 0.00 0.00
9:35 am 09:35 Sunny 46 8 41 5 82 82 WNW 5 7 30.16 1021 10 16 0.00 0.00
9:55 am 09:55 Sunny 48 8.8 42 5.6 81 81 W 8 13 30.16 1021 10 16 0.00 0.00
10:15 am 10:15 Sunny 49 9.2 41 4.9 75 75 W 6 9 30.15 1021 10 16 0.00 0.00
10:35 am 10:35 Sunny 50 10 41 5.1 72 72 W 7 11 30.15 1021 10 16 0.00 0.00
10:55 am 10:55 Sunny 51 10.7 41 5 68 68 W 6 9 30.15 1021 10 16 0.00 0.00
11:15 am 11:15 Sunny 52 11 40 4.7 65 65 WSW 5 7 30.15 1021 10 16 0.00 0.00
11:35 am 11:35 Sunny 52 11.2 41 4.9 65 65 WSW 7 11 30.15 1021 10 16 0.00 0.00
11:55 am 11:55 Sunny 53 11.8 41 5.2 64 64 SW 6 9 30.16 1021 10 16 0.00 0.00
12:15 pm 12:15 Mostly Cloudy 53 11.9 40 4.7 62 62 WNW 6 9 30.16 1021 10 16 0.00 0.00
12:35 pm 12:35 Partly Cloudy 54 12.3 42 5.3 63 63 W 9 15 30.16 1021 10 16 0.00 0.00
12:55 pm 12:55 Partly Cloudy 54 12.4 41 4.8 60 60 WSW 7 11 30.15 1021 10 16 0.00 0.00
1:15 pm 13:15 Partly Cloudy 55 12.7 40 4.3 57 57 W 6 9 30.14 1021 10 16 0.00 0.00
1:35 pm 13:35 Sunny 56 13.2 42 5.4 59 59 WNW 8 13 30.14 1021 10 16 0.00 0.00
1:55 pm 13:55 Sunny 57 13.7 41 5.1 56 56 WNW 7 11 30.15 1021 10 16 0.00 0.00
2:15 pm 14:15 Partly Cloudy 58 14.2 43 6.1 58 58 NW 5 7 30.15 1021 10 16 0.00 0.00
2:35 pm 14:35 Partly Cloudy 58 14.2 40 4.6 53 53 WNW 7 11 30.15 1021 10 16 0.00 0.00
2:55 pm 14:55 Mostly Cloudy 58 14.4 42 5.8 57 57 W 7 11 30.14 1020 10 16 0.00 0.00
3:15 pm 15:15 Partly Cloudy 58 14.4 40 4.5 52 52 NNW 6 9 30.14 1020 10 16 0.00 0.00
3:35 pm 15:35 Partly Cloudy 58 14.4 39 3.8 49 49 WNW 3 6 30.13 1020 10 16 0.00 0.00
3:55 pm 15:55 Partly Cloudy 59 14.9 37 2.6 44 44 W 7 11 30.12 1020 10 16 0.00 0.00
4:15 pm 16:15 Sunny 59 14.9 38 3.2 46 46 NNW 8 13 30.12 1020 10 16 0.00 0.00
4:35 pm 16:35 Sunny 58 14.6 37 2.5 44 44 NW 7 11 30.12 1020 10 16 0.00 0.00
4:55 pm 16:55 Sunny 59 14.8 38 3.3 46 46 N 5 7 30.11 1020 10 16 0.00 0.00
5:15 pm 17:15 Partly Cloudy 58 14.7 38 3.1 46 46 SW 3 6 30.11 1020 10 16 0.00 0.00
5:35 pm 17:35 Mostly Cloudy 59 14.8 37 3 45 45 Calm 30.10 1019 10 16 0.00 0.00
5:55 pm 17:55 Cloudy 58 14.6 37 3 46 46 W 3 6 30.10 1019 10 16 0.00 0.00
6:15 pm 18:15 Cloudy 58 14.7 40 4.6 51 51 WSW 9 15 30.11 1020 10 16 0.00 0.00
6:35 pm 18:35 Cloudy 57 14.1 38 3.4 49 49 SW 3 6 30.12 1020 10 16 0.00 0.00
6:55 pm 18:55 Cloudy 57 14 39 3.7 50 50 W 3 6 30.11 1020 10 16 0.00 0.00
7:15 pm 19:15 Cloudy 57 13.7 40 4.3 53 53 W 3 6 30.12 1020 10 16 0.00 0.00
7:35 pm 19:35 Cloudy 56 13.5 41 5.2 57 57 Calm 30.12 1020 10 16 0.00 0.00
7:55 pm 19:55 Cloudy 56 13.5 41 5.1 57 57 NNW 3 6 30.12 1020 10 16 0.00 0.00
8:15 pm 20:15 Cloudy 55 13 43 6.2 64 64 NNW 5 7 30.12 1020 10 16 0.00 0.00
8:35 pm 20:35 Cloudy 55 12.6 44 6.5 67 67 N 5 7 30.12 1020 10 16 0.00 0.00
8:55 pm 20:55 Cloudy with Drizzle 53 11.7 44 6.8 72 72 N 15 24 30.13 1020 10 16 0.00 0.00
9:15 pm 21:15 Cloudy 51 10.5 45 7.2 80 80 N 9 15 30.15 1021 10 16 0.00 0.00
9:35 pm 21:35 Cloudy with Light Rain 51 10.5 45 7.1 80 80 N 9 15 30.15 1021 10 16 0.00 0.00
9:55 pm 21:55 Cloudy with Light Rain 50 10.2 44 6.9 80 80 N 8 13 30.16 1021 10 16 0.00 0.00
10:15 pm 22:15 Cloudy with Light Rain 50 10 45 7.2 83 83 N 7 11 30.17 1022 10 16 0.00 0.00
10:35 pm 22:35 Cloudy with Light Rain 49 9.7 45 7.2 85 85 N 8 13 30.17 1022 7 11 0.00 0.00
10:55 pm 22:55 Cloudy with Light Rain 49 9.5 45 7.2 86 86 N 8 13 30.18 1022 10 16 0.00 0.00
11:15 pm 23:15 Cloudy with Light Rain 49 9.5 45 7.1 85 85 NNE 5 7 30.19 1022 10 16 0.00 0.00
11:35 pm 23:35 Cloudy with Light Rain 49 9.5 45 7.1 85 85 ENE 3 6 30.19 1022 10 16 0.00 0.00
11:55 pm 23:55 Cloudy with Rain 49 9.2 45 7.2 87 87 Calm 30.19 1022 10 16 0.01 0.25

Powered by AerisWeather